Regional Weather Roundup
Issued by NWS

Home | Current Version | Previous Version | Graphics & Text | Print | Product List | Glossary On
Versions: 1 2 3 4 5 6 7 8 9 10 11 12 13 14 15 16 17 18 19 20 21 22 23 24 25 26 27 28 29 30 31 32 33 34 35 36 37 38 39 40 41 42 43 44 45 46 47 48 49 50
000
ASUS45 KCYS 221610
RWRWY

WYOMING REGIONAL WEATHER ROUNDUP
NATIONAL WEATHER SERVICE CHEYENNE WY
1000 AM MDT SUN OCT 22 2017

NOTE:  "FAIR" INDICATES FEW OR NO CLOUDS BELOW 12,000 FEET
WITH NO SIGNIFICANT WEATHER AND/OR OBSTRUCTIONS TO VISIBILITY.

WYZ001-221700-
YELLOWSTONE NATIONAL PARK

CITY           SKY/WX    TMP DP  RH WIND       PRES   REMARKS
LK YELLOWSTONE   N/A     34  32  92 VRB5      30.19F WCI  30
W YELLOWSTONE  NOT AVBL

$$
WYZ002>013-054>058-071-098>099-221700-
NORTHERN WYOMING

CITY           SKY/WX    TMP DP  RH WIND       PRES   REMARKS
JACKSON        CLOUDY    41  32  70 S23G31    30.25F
CODY           FAIR      53  30  41 SW20G32   30.00F
GREYBULL       FAIR      41  22  46 E8        30.02F
WORLAND        FAIR      37  21  52 CALM      30.03F
SHERIDAN       FAIR      63  29  27 SW16G22   29.88F
BUFFALO        FAIR      57  22  25 SE7       29.94S
GILLETTE       FAIR      53  25  33 SW22G29   29.94R
HULETT         FAIR      50  23  34 SW16      29.95R
NEWCASTLE      FAIR      46  19  34 SE8       30.02S

$$
WYZ014>020-022>026-101>103-221700-
CENTRAL WYOMING

CITY           SKY/WX    TMP DP  RH WIND       PRES   REMARKS
BIG PINEY      FAIR      33  20  58 S3        30.33R
PINEDALE       FAIR      39  30  70 NW3       30.32S
DUBOIS         FAIR      43  28  56 NW24G37   30.17F
LANDER         FAIR      42  27  55 CALM      30.12R
RIVERTON       FAIR      44  24  45 SW7       30.12R
CASPER         FAIR      50  25  37 SW26G33   30.10S
DOUGLAS        FAIR      55  24  30 W25G33    30.06R

$$
WYZ021-027>030-104>119-221700-
SOUTHERN WYOMING

CITY           SKY/WX    TMP DP  RH WIND       PRES   REMARKS
EVANSTON       FAIR      46  25  43 SW21G31   30.38S
KEMMERER       FAIR      41  23  48 SW22G28   30.36R
FORT BRIDGER   CLOUDY    49  29  44 W23G31    30.40S
ROCK SPRINGS   FAIR      43  24  47 W13G25    30.34S
DIXON          CLOUDY    42  20  40 SW14      30.43R
RAWLINS        FAIR      43  23  45 SW35G48   30.25F
SARATOGA       FAIR      45  28  53 SW18G32   30.35R
LARAMIE        FAIR      48  23  37 SW20G30   30.20F
CHEYENNE       FAIR      52  22  30 W30G39    30.17R
TORRINGTON     FAIR      58  23  26 W22G35    30.06F
PINE BLUFFS    FAIR      54  23  30 W21G32    30.15S

$$



USA.gov is the U.S. government's official web portal to all federal, state and local government web resources and services.